Burbank, CA

10:05 AM PST on December 11, 2017 (GMT -0800)
Burbank-Glendale-Pasadena

Weather History for KBUR - November, 2013

Change the Weather History Date:

Wednesday, November 13, 2013

  Actual Average Record
Temperature  
Mean Temperature 76 °F 60 °F  
Max Temperature 95 °F 74 °F 95 °F (2013)
Min Temperature 57 °F 47 °F 36 °F (1985)
Degree Days  
Heating Degree Days 0 5  
Month to date heating degree days 3 52  
Since 1 July heating degree days 30 101  
Cooling Degree Days 11 0  
Month to date cooling degree days 41 12  
Year to date cooling degree days 2000 1243  
Growing Degree Days 25 (Base 50)    
Moisture  
Dew Point 28 °F    
Average Humidity 23    
Maximum Humidity 40    
Minimum Humidity 6    
Precipitation  
Precipitation 0.00 in 0.04 in 1.29 in (1946)
Month to date precipitation T 0.39  
Year to date precipitation 2.71 14.23  
Since 1 July precipitation 0.11  
Sea Level Pressure  
Sea Level Pressure 29.94 in    
Wind  
Wind Speed 3 mph (North)    
Max Wind Speed 13 mph    
Max Gust Speed 15 mph    
Visibility 10 miles    
Events      
T = Trace of Precipitation, MM = Missing Value Source: NWS Daily Summary

Daily Weather History Graph

Daily Weather History Graph

Search for Another Location

Airport or City:

Trip Planner

Search our weather history database for the weather conditions in past years. The results will help you decide how hot, cold, wet, or windy it might be!

Date:

Astronomy

Nov. 13, 2013 Rise Set
Actual Time 6:24 AM PST 4:50 PM PST
Civil Twilight 5:58 AM PST 5:16 PM PST
Nautical Twilight 5:27 AM PST 5:47 PM PST
Astronomical Twilight 4:58 AM PST 6:16 PM PST
Moon 2:32 PM PST (11/13) 2:32 AM PST (11/13)
Length of Visible Light 11h 18m
Length of Day
10h 25m
Waxing Gibbous, 85% of the Moon is Illuminated
Nov 13
Waxing Gibbous
Nov 17
Full
Nov 25
Last Quarter
Dec 2
New
Dec 9
First Quarter

Hourly Weather History & Observations

Time (PST) Temp. Dew Point Humidity Pressure Visibility Wind Dir Wind Speed Gust Speed Precip Events Conditions
12:53 AM 64.9 °F 32.0 °F 29% 30.03 in 10.0 mi Calm Calm - N/A   Clear
1:53 AM 62.1 °F 32.0 °F 32% 30.02 in 10.0 mi North 4.6 mph - N/A   Clear
2:53 AM 60.1 °F 32.0 °F 35% 30.01 in 10.0 mi Calm Calm - N/A   Clear
3:53 AM 60.1 °F 32.0 °F 35% 29.99 in 10.0 mi Calm Calm - N/A   Clear
4:53 AM 57.9 °F 33.1 °F 39% 29.99 in 10.0 mi North 3.5 mph - N/A   Clear
5:53 AM 57.9 °F 33.1 °F 39% 29.99 in 10.0 mi Calm Calm - N/A   Clear
6:53 AM 60.1 °F 32.0 °F 35% 30.00 in 10.0 mi Calm Calm - N/A   Clear
7:53 AM 69.1 °F 34.0 °F 27% 30.01 in 9.0 mi Calm Calm - N/A   Clear
8:53 AM 73.9 °F 33.1 °F 22% 30.01 in 10.0 mi Calm Calm - N/A   Clear
9:53 AM 81.0 °F 30.0 °F 16% 29.99 in 10.0 mi Calm Calm - N/A   Clear
10:53 AM 88.0 °F 28.0 °F 12% 29.97 in 10.0 mi ESE 3.5 mph - N/A   Clear
11:53 AM 90.0 °F 25.0 °F 10% 29.94 in 10.0 mi ESE 3.5 mph - N/A   Clear
12:53 PM 93.0 °F 25.0 °F 9% 29.91 in 10.0 mi SE 4.6 mph - N/A   Clear
1:53 PM 93.9 °F 19.0 °F 7% 29.88 in 10.0 mi Calm Calm - N/A   Clear
2:53 PM 93.9 °F 18.0 °F 6% 29.86 in 10.0 mi Variable 5.8 mph - N/A   Clear
3:53 PM 91.0 °F 28.0 °F 10% 29.86 in 9.0 mi SSE 8.1 mph - N/A   Clear
4:53 PM 86.0 °F 30.9 °F 14% 29.87 in 10.0 mi Calm Calm - N/A   Clear
5:53 PM 84.0 °F 19.0 °F 9% 29.89 in 10.0 mi NW 5.8 mph - N/A   Clear
6:53 PM 80.1 °F 19.9 °F 11% 29.91 in 10.0 mi NNW 8.1 mph - N/A   Clear
7:53 PM 77.0 °F 21.9 °F 13% 29.91 in 10.0 mi NNW 9.2 mph - N/A   Clear
8:53 PM 78.1 °F 21.9 °F 12% 29.91 in 10.0 mi NW 6.9 mph - N/A   Clear
9:53 PM 71.1 °F 27.0 °F 19% 29.91 in 10.0 mi Calm Calm - N/A   Clear
10:53 PM 68.0 °F 30.0 °F 24% 29.91 in 10.0 mi Calm Calm - N/A   Clear
11:53 PM 66.9 °F 28.9 °F 24% 29.90 in 10.0 mi Calm Calm - N/A   Clear